EW1555 Weather Reports


time (UTC)temp
C
wind
direction
speed
KPH
gust
KPH
rain 1hr
cm
rain 24hr
cm
rain mn
cm
humidity
%
barometer
mb
20260507212003 17 254 0.0 4.8 0.00 0.74 0.69 35 1006.0
20260507211524 17 274 0.0 4.8 0.00 0.74 0.69 34 1006.0
20260507211519 17 268 0.0 4.8 0.00 0.71 0.69 34 1005.1
20260507211003 17 319 0.0 4.8 0.00 0.74 0.69 35 1006.0
20260507210503 17 292 0.0 4.8 0.00 0.74 0.69 37 1006.1
20260507210017 17 272 0.0 3.2 0.00 0.71 0.69 36 1005.0
20260507210003 17 265 0.0 4.8 0.00 0.74 0.69 37 1005.9
20260507205503 17 249 1.6 6.4 0.00 0.74 0.69 34 1005.8
20260507205003 17 256 1.6 12.9 0.00 0.76 0.69 35 1005.9
20260507204510 17 260 1.6 12.9 0.00 0.76 0.69 37 1004.8
20260507204503 17 264 1.6 12.9 0.00 0.76 0.69 37 1005.8
20260507204003 17 252 0.0 6.4 0.00 0.76 0.69 37 1005.7
20260507203503 17 245 0.0 4.8 0.00 0.76 0.69 36 1005.7
20260507203011 17 258 1.6 4.8 0.00 0.76 0.69 35 1004.9
20260507203003 17 247 0.0 6.4 0.00 0.76 0.69 35 1005.9
20260507202503 17 306 0.0 6.4 0.00 0.76 0.69 34 1005.8
20260507202003 17 268 1.6 9.7 0.00 0.76 0.69 35 1005.9
20260507201524 17 250 1.6 9.7 0.00 0.76 0.69 34 1005.9
20260507201505 17 297 0.0 9.7 0.00 0.76 0.69 34 1004.9
20260507201003 17 268 1.6 8.0 0.00 0.76 0.69 33 1005.9
20260507200503 17 302 1.6 8.0 0.00 0.76 0.69 33 1005.9
20260507200010 17 288 0.0 6.4 0.00 0.76 0.69 35 1004.9
20260507200003 17 319 1.6 6.4 0.00 0.76 0.69 35 1005.8
20260507195503 17 311 1.6 8.0 0.00 0.76 0.69 34 1005.9
20260507195003 17 294 1.6 8.0 0.00 0.76 0.69 35 1006.1
20260507194516 17 306 0.0 9.7 0.00 0.76 0.69 37 1005.0
20260507194503 17 335 1.6 11.3 0.00 0.76 0.69 37 1006.0
20260507194003 17 325 1.6 11.3 0.00 0.76 0.69 34 1006.1
20260507193524 17 256 0.0 8.0 0.00 0.76 0.69 34 1006.0
20260507193015 17 241 1.6 6.4 0.00 0.76 0.69 36 1005.2
20260507193003 17 275 0.0 4.8 0.00 0.76 0.69 36 1006.1
20260507192503 17 283 0.0 3.2 0.00 0.76 0.69 35 1006.1
20260507192003 17 322 0.0 6.4 0.00 0.76 0.69 38 1006.3
20260507191520 17 153 0.0 6.4 0.00 0.76 0.69 38 1005.3
20260507191503 17 303 1.6 6.4 0.00 0.76 0.69 35 1006.2
20260507191003 17 272 0.0 4.8 0.00 0.76 0.69 34 1006.3
20260507190503 17 252 0.0 6.4 0.00 0.76 0.69 38 1006.3
20260507190012 17 249 0.0 6.4 0.00 0.76 0.69 36 1005.4
20260507190004 17 261 1.6 6.4 0.00 0.76 0.69 36 1006.3
20260507185503 17 277 1.6 6.4 0.00 0.76 0.69 34 1006.5
20260507185024 17 267 1.6 9.7 0.00 0.76 0.69 37 1006.5
20260507184511 17 264 1.6 9.7 0.00 0.76 0.69 36 1005.6
20260507184503 17 257 1.6 9.7 0.00 0.76 0.69 36 1006.6
20260507184024 17 250 0.0 6.4 0.00 0.76 0.69 36 1006.6
20260507183503 17 283 1.6 17.7 0.00 0.76 0.69 38 1006.7
20260507183031 17 246 0.0 17.7 0.00 0.76 0.69 38 1005.8
20260507183003 17 280 1.6 17.7 0.00 0.76 0.69 38 1006.8
20260507182503 17 238 1.6 8.0 0.00 0.76 0.69 38 1006.7
20260507182003 17 261 1.6 12.9 0.00 0.76 0.69 39 1006.6
20260507181514 17 26 1.6 12.9 0.00 0.76 0.69 38 1005.9
20260507181503 17 294 0.0 12.9 0.00 0.76 0.69 38 1006.8
20260507181003 17 287 0.0 8.0 0.00 0.76 0.69 42 1006.9
20260507180503 17 271 1.6 8.0 0.00 0.76 0.69 41 1006.9
20260507180008 17 285 0.0 9.7 0.00 0.76 0.69 44 1005.9
20260507180003 17 255 1.6 9.7 0.00 0.76 0.69 44 1006.9
20260507175503 17 247 1.6 9.7 0.00 0.76 0.69 43 1007.0
20260507175003 17 252 1.6 6.4 0.00 0.76 0.69 42 1006.9
20260507174521 17 281 0.0 6.4 0.00 0.76 0.69 45 1006.0
20260507174503 17 248 1.6 6.4 0.00 0.76 0.69 45 1006.9
20260507174024 17 240 1.6 6.4 0.00 0.76 0.69 41 1006.9
20260507173503 17 242 1.6 6.4 0.00 0.76 0.69 40 1006.9
20260507173017 16 313 0.0 11.3 0.00 0.76 0.69 42 1006.0
20260507173003 17 277 1.6 11.3 0.00 0.76 0.69 41 1006.9
20260507172503 17 274 1.6 11.3 0.00 0.76 0.69 43 1007.1
20260507172003 17 248 1.6 6.4 0.00 0.76 0.69 42 1007.1
20260507171508 16 242 1.6 11.3 0.00 0.76 0.69 42 1006.3
20260507171503 16 239 3.2 11.3 0.00 0.76 0.69 42 1007.2
20260507171003 16 231 3.2 11.3 0.00 0.76 0.69 44 1007.2
20260507170503 17 220 1.6 11.3 0.00 0.76 0.69 44 1007.2
20260507170018 16 212 0.0 11.3 0.00 0.76 0.69 42 1006.3
20260507170003 16 230 3.2 11.3 0.00 0.76 0.69 42 1007.3
20260507165524 16 240 1.6 9.7 0.00 0.76 0.69 44 1007.4
20260507165003 16 240 1.6 9.7 0.00 0.76 0.69 47 1007.3
20260507164514 16 238 0.0 8.0 0.00 0.76 0.69 45 1006.4
20260507164503 16 246 0.0 8.0 0.00 0.76 0.69 45 1007.4
20260507164003 17 248 0.0 4.8 0.00 0.76 0.69 51 1007.4
20260507163503 16 247 1.6 8.0 0.00 0.76 0.69 50 1007.4
20260507163005 16 281 0.0 8.0 0.00 0.76 0.69 52 1006.5
20260507163003 16 246 1.6 8.0 0.00 0.76 0.69 52 1007.4
20260507162524 16 223 0.0 8.0 0.00 0.76 0.69 49 1007.6
20260507162003 16 220 0.0 8.0 0.00 0.76 0.69 57 1007.7
20260507161513 15 339 0.0 6.4 0.00 0.76 0.69 56 1006.8
20260507161503 16 247 0.0 6.4 0.00 0.76 0.69 56 1007.7
20260507161003 16 267 0.0 6.4 0.00 0.76 0.69 55 1007.7
20260507160503 16 229 1.6 9.7 0.00 0.76 0.69 54 1007.8
20260507160009 15 182 1.6 9.7 0.00 0.76 0.69 54 1006.8
20260507160003 16 236 1.6 9.7 0.00 0.76 0.69 54 1007.8
20260507155503 15 256 1.6 8.0 0.00 0.76 0.69 57 1008.0
20260507155003 16 301 0.0 4.8 0.00 0.76 0.69 56 1007.9
20260507154520 15 311 0.0 6.4 0.00 0.76 0.69 55 1007.0
20260507154503 15 262 0.0 6.4 0.00 0.76 0.69 55 1008.0
20260507154003 15 253 1.6 6.4 0.00 0.76 0.69 64 1008.1
20260507153504 15 257 0.0 8.0 0.00 0.76 0.69 60 1008.1
20260507153011 15 247 0.0 6.4 0.00 0.76 0.69 62 1007.2
20260507153003 15 249 0.0 8.0 0.00 0.76 0.69 62 1008.1
20260507152503 15 297 0.0 8.0 0.00 0.76 0.69 61 1008.2
20260507152024 15 357 0.0 8.0 0.00 0.76 0.69 67 1008.2
20260507151517 13 275 0.0 4.8 0.00 0.76 0.69 72 1007.3
20260507151503 14 275 0.0 4.8 0.00 0.76 0.69 71 1008.2
20260507151024 14 0 0.0 1.6 0.00 0.76 0.69 71 1008.2
20260507150503 13 0 0.0 1.6 0.00 0.76 0.69 71 1008.2
20260507150014 13 299 0.0 1.6 0.00 0.76 0.69 69 1007.3
20260507150003 13 0 0.0 0.0 0.00 0.76 0.69 69 1008.3
20260507145503 13 326 0.0 6.4 0.00 0.76 0.69 68 1008.4
20260507145003 13 309 0.0 6.4 0.00 0.76 0.69 67 1008.4
20260507144508 13 240 0.0 4.8 0.00 0.76 0.69 72 1007.6
20260507144503 14 244 0.0 4.8 0.00 0.76 0.69 72 1008.5
20260507144003 14 282 0.0 6.4 0.00 0.76 0.69 71 1008.4
20260507143503 14 282 0.0 6.4 0.00 0.76 0.69 70 1008.4
20260507143107 13 248 0.0 6.4 0.00 0.76 0.69 73 1007.6
20260507143003 13 0 0.0 3.2 0.00 0.76 0.69 71 1008.6
20260507142503 13 345 0.0 3.2 0.00 0.76 0.69 72 1008.7
20260507142003 13 351 0.0 4.8 0.00 0.76 0.69 77 1008.7
20260507141509 12 355 0.0 9.7 0.00 0.76 0.69 82 1007.7
20260507141503 12 351 0.0 9.7 0.00 0.76 0.69 82 1008.6
20260507141003 12 358 0.0 9.7 0.00 0.76 0.69 83 1008.7
20260507140524 11 3 0.0 4.8 0.00 0.76 0.69 87 1008.7
20260507140007 11 283 0.0 3.2 0.00 0.76 0.69 91 1007.8
20260507140003 11 263 0.0 3.2 0.00 0.76 0.69 91 1008.8
20260507135503 11 263 0.0 3.2 0.00 0.76 0.69 92 1008.8
20260507135003 11 255 0.0 4.8 0.00 0.76 0.69 93 1008.8
20260507134618 10 253 0.0 4.8 0.00 0.76 0.69 93 1007.7
20260507134524 10 261 0.0 4.8 0.00 0.76 0.69 93 1008.7
20260507134003 10 306 0.0 4.8 0.00 0.76 0.69 94 1008.7
20260507133503 10 323 0.0 3.2 0.00 0.76 0.69 94 1008.8
20260507133011 10 355 0.0 3.2 0.00 0.76 0.69 94 1007.9
20260507133003 10 342 0.0 3.2 0.00 0.76 0.69 94 1008.8
20260507132503 10 342 0.0 3.2 0.00 0.76 0.69 94 1008.8
20260507132003 10 241 0.0 6.4 0.00 0.76 0.69 95 1008.8
20260507131510 10 288 1.6 6.4 0.00 0.76 0.69 95 1007.8
20260507131503 10 242 0.0 6.4 0.00 0.76 0.69 95 1008.7
20260507131003 10 269 0.0 3.2 0.00 0.76 0.69 95 1008.8
20260507130503 10 339 0.0 9.7 0.00 0.76 0.69 95 1008.9
20260507130005 9 355 0.0 9.7 0.00 0.76 0.69 95 1008.0
20260507130003 10 329 0.0 9.7 0.00 0.76 0.69 95 1009.0
20260507125503 10 328 0.0 8.0 0.00 0.76 0.69 95 1008.9
20260507125024 10 0 0.0 1.6 0.00 0.76 0.69 95 1008.8
20260507124517 9 312 0.0 0.0 0.00 0.76 0.69 95 1007.9
20260507124503 9 0 0.0 0.0 0.00 0.76 0.69 95 1008.8
20260507124003 9 0 0.0 0.0 0.00 0.76 0.69 95 1008.8
20260507123503 9 0 0.0 0.0 0.00 0.76 0.69 94 1008.9
20260507123013 9 315 0.0 0.0 0.00 0.76 0.69 94 1008.1
20260507123003 9 0 0.0 0.0 0.00 0.76 0.69 94 1009.0
20260507122503 9 0 0.0 0.0 0.00 0.76 0.69 94 1009.2
20260507122003 9 0 0.0 0.0 0.00 0.76 0.69 94 1009.2
20260507121505 8 315 0.0 3.2 0.00 0.76 0.69 94 1008.4
20260507121503 9 315 0.0 3.2 0.00 0.76 0.69 94 1009.4
20260507121003 9 316 0.0 3.2 0.00 0.76 0.69 94 1009.1
20260507120503 9 319 0.0 1.6 0.00 0.76 0.69 94 1008.8
20260507120115 8 319 0.0 1.6 0.00 0.76 0.69 94 1007.7
20260507120003 8 0 0.0 0.0 0.00 0.76 0.69 94 1008.7
20260507115503 8 0 0.0 0.0 0.00 0.76 0.69 94 1008.8
20260507115003 8 0 0.0 0.0 0.00 0.76 0.69 94 1008.8
20260507114506 8 331 0.0 0.0 0.00 0.76 0.69 94 1007.6
20260507114503 8 0 0.0 0.0 0.00 0.76 0.69 94 1008.6
20260507114003 8 0 0.0 0.0 0.03 0.76 0.69 94 1008.8
20260507113503 8 0 0.0 0.0 0.05 0.76 0.69 94 1008.9
20260507113006 8 331 0.0 0.0 0.08 0.76 0.69 94 1007.8
20260507113003 8 0 0.0 0.0 0.08 0.76 0.69 94 1008.8
20260507112503 8 0 0.0 0.0 0.15 0.76 0.69 94 1008.8
20260507112003 8 0 0.0 0.0 0.18 0.76 0.69 94 1008.7
20260507111509 8 331 0.0 0.0 0.18 0.76 0.69 94 1007.6
20260507111503 8 0 0.0 0.0 0.18 0.76 0.69 94 1008.6
20260507111003 8 0 0.0 0.0 0.18 0.76 0.69 94 1008.7
20260507110503 8 0 0.0 0.0 0.20 0.76 0.69 94 1008.6
20260507110107 8 331 0.0 0.0 0.20 0.76 0.69 94 1007.6
20260507110003 8 0 0.0 0.0 0.20 0.76 0.69 94 1008.6
20260507105524 8 0 0.0 0.0 0.23 0.76 0.69 93 1008.2
20260507105003 8 0 0.0 0.0 0.23 0.76 0.69 93 1008.5
20260507104516 8 331 0.0 0.0 0.23 0.76 0.69 93 1007.4
20260507104503 8 0 0.0 0.0 0.23 0.76 0.69 93 1008.4
20260507104003 8 0 0.0 0.0 0.23 0.74 0.66 93 1008.4
20260507103524 8 0 0.0 0.0 0.20 0.71 0.64 93 1008.2
20260507103009 8 331 0.0 0.0 0.18 0.69 0.61 93 1007.6
20260507103003 8 0 0.0 0.0 0.18 0.69 0.61 93 1008.6
20260507102503 8 0 0.0 0.0 0.13 0.61 0.53 93 1008.6
20260507102003 8 0 0.0 0.0 0.10 0.58 0.51 93 1008.8
20260507101506 8 331 0.0 0.0 0.10 0.58 0.51 93 1007.9
20260507101503 8 0 0.0 0.0 0.10 0.58 0.51 93 1008.9
20260507101003 8 0 0.0 0.0 0.10 0.58 0.51 93 1008.6
20260507100503 8 0 0.0 0.0 0.08 0.56 0.48 93 1008.6
20260507100021 8 331 0.0 0.0 0.08 0.56 0.48 93 1007.5
20260507100003 8 0 0.0 0.0 0.08 0.56 0.48 93 1008.4
20260507095524 8 0 0.0 0.0 0.08 0.53 0.46 93 1008.5
20260507095003 8 0 0.0 0.0 0.08 0.53 0.46 92 1008.7
20260507094518 8 331 0.0 0.0 0.08 0.53 0.46 92 1007.2
20260507094503 8 0 0.0 0.0 0.08 0.53 0.46 92 1008.2
20260507094003 8 0 0.0 0.0 0.08 0.51 0.43 92 1008.2
20260507093524 9 0 0.0 0.0 0.08 0.51 0.43 92 1008.2
20260507093011 9 331 0.0 0.0 0.10 0.51 0.43 92 1007.3
20260507093003 9 0 0.0 0.0 0.10 0.51 0.43 92 1008.3
20260507092503 9 0 0.0 0.0 0.08 0.48 0.41 92 1008.2
20260507092003 9 0 0.0 0.0 0.10 0.48 0.41 92 1008.1
20260507091605 9 331 0.0 0.0 0.10 0.48 0.41 92 1007.1
20260507091503 9 0 0.0 0.0 0.10 0.48 0.41 92 1008.0
20260507091003 10 0 0.0 0.0 0.15 0.48 0.41 92 1008.0
20260507090503 10 0 0.0 0.0 0.18 0.48 0.41 92 1008.1
20260507090008 10 335 0.0 0.0 0.18 0.48 0.41 92 1006.7
20260507090004 10 335 0.0 3.2 0.18 0.48 0.41 92 1007.7
20260507085503 10 335 0.0 3.2 0.18 0.46 0.38 92 1007.7
20260507085003 10 0 0.0 0.0 0.20 0.46 0.38 92 1007.9
20260507084509 10 226 0.0 0.0 0.23 0.46 0.38 92 1007.0
20260507084503 10 0 0.0 0.0 0.23 0.46 0.38 92 1008.0
20260507084003 10 0 0.0 0.0 0.28 0.43 0.36 92 1008.0
20260507083503 11 0 0.0 1.6 0.33 0.43 0.36 92 1007.9
20260507083024 11 0 0.0 1.6 0.33 0.41 0.33 92 1008.1
20260507083013 10 226 0.0 1.6 0.33 0.41 0.33 92 1007.1
20260507082503 11 226 0.0 1.6 0.33 0.41 0.33 92 1007.9
20260507082003 11 226 0.0 1.6 0.30 0.38 0.30 92 1007.7
20260507081520 11 225 0.0 0.0 0.30 0.38 0.30 93 1006.6
20260507081503 11 0 0.0 0.0 0.30 0.38 0.30 93 1007.6
20260507081003 11 0 0.0 0.0 0.25 0.33 0.25 92 1007.8
20260507080524 11 0 0.0 0.0 0.23 0.30 0.23 92 1008.0
20260507080015 11 225 0.0 0.0 0.23 0.30 0.23 92 1007.1
20260507080003 11 0 0.0 0.0 0.23 0.30 0.23 92 1008.1
20260507075503 11 0 0.0 0.0 0.20 0.28 0.20 93 1008.0
20260507075003 11 0 0.0 0.0 0.18 0.25 0.18 93 1007.7
20260507074507 11 225 0.0 3.2 0.15 0.23 0.15 93 1006.9
20260507074503 12 225 0.0 3.2 0.15 0.23 0.15 93 1007.9
20260507074024 12 225 0.0 3.2 0.08 0.15 0.08 93 1007.9
20260507073524 12 0 0.0 3.2 0.03 0.10 0.03 93 1007.9
20260507073024 12 0 0.0 0.0 0.00 0.08 0.00 93 1007.7
20260507073013 12 224 0.0 0.0 0.00 0.08 0.00 93 1006.5
20260507072503 12 0 0.0 0.0 0.00 0.08 0.00 93 1006.9
20260507072003 12 0 0.0 0.0 0.00 0.08 0.00 94 1006.7
20260507071605 12 225 0.0 0.0 0.00 0.08 0.00 94 1005.8
20260507071503 12 0 0.0 0.0 0.00 0.08 0.00 94 1006.8
20260507071003 12 0 0.0 0.0 0.00 0.08 0.00 94 1006.6
20260507070524 12 0 0.0 0.0 0.00 0.08 0.00 94 1006.8
20260507070012 12 225 0.0 0.0 0.00 0.08 0.00 94 1005.7
20260507070004 12 0 0.0 0.0 0.00 0.08 0.00 94 1006.7
20260507065503 13 0 0.0 0.0 0.00 0.08 0.00 95 1006.8
20260507065003 13 225 0.0 1.6 0.00 0.08 0.00 94 1006.8
20260507064524 13 225 0.0 1.6 0.00 0.08 0.00 95 1006.8
20260507064509 13 225 0.0 1.6 0.00 0.08 0.00 95 1005.8
20260507064003 13 0 0.0 0.0 0.00 0.08 0.00 95 1006.8
20260507063503 13 0 0.0 0.0 0.00 0.08 0.00 95 1006.9
20260507063024 13 218 0.0 0.0 0.00 0.08 0.00 95 1005.9
20260507063003 13 0 0.0 0.0 0.00 0.08 0.00 95 1006.9
20260507062503 13 0 0.0 0.0 0.00 0.08 0.00 95 1006.9
20260507062003 13 0 0.0 0.0 0.00 0.08 0.00 95 1006.7
20260507061524 13 0 0.0 0.0 0.00 0.08 0.00 95 1006.8
20260507061510 13 218 0.0 0.0 0.00 0.08 0.00 95 1005.8
20260507061003 13 0 0.0 0.0 0.00 0.08 0.00 95 1007.0
20260507060503 13 0 0.0 0.0 0.00 0.08 0.00 95 1006.9
20260507060016 13 215 0.0 0.0 0.00 0.08 0.00 95 1006.0
20260507060003 13 0 0.0 0.0 0.00 0.08 0.00 95 1007.1
20260507055503 14 0 0.0 0.0 0.00 0.08 0.00 95 1007.2
20260507055024 14 0 0.0 0.0 0.00 0.08 0.00 95 1007.4
20260507054518 13 215 0.0 0.0 0.00 0.08 0.00 95 1006.3
20260507054503 14 0 0.0 0.0 0.00 0.08 0.00 95 1007.3
20260507054003 14 0 0.0 0.0 0.00 0.08 0.00 95 1007.1
20260507053503 14 0 0.0 0.0 0.00 0.08 0.00 95 1007.2
20260507053021 14 215 0.0 0.0 0.00 0.08 0.00 95 1006.3
20260507053003 14 0 0.0 0.0 0.00 0.08 0.00 95 1007.3
20260507052503 14 0 0.0 0.0 0.00 0.08 0.00 95 1007.3
20260507052003 14 0 0.0 0.0 0.00 0.08 0.00 95 1007.5
20260507051515 14 215 0.0 0.0 0.00 0.08 0.00 95 1006.2
20260507051503 14 0 0.0 0.0 0.00 0.08 0.00 95 1007.3
20260507051024 14 0 0.0 0.0 0.00 0.08 0.00 95 1007.3
20260507050503 14 0 0.0 0.0 0.00 0.08 0.00 96 1007.4
20260507050010 14 215 0.0 0.0 0.00 0.08 0.00 95 1006.3
20260507050003 14 0 0.0 0.0 0.00 0.08 0.00 95 1007.4
20260507045503 14 0 0.0 0.0 0.00 0.08 0.00 95 1007.4
20260507045003 14 0 0.0 0.0 0.00 0.08 0.00 96 1007.3
20260507044605 14 215 0.0 0.0 0.00 0.08 0.00 96 1006.3
20260507044524 14 0 0.0 0.0 0.00 0.08 0.00 96 1007.3
20260507044003 14 0 0.0 0.0 0.00 0.08 0.00 95 1007.2
20260507043503 14 0 0.0 0.0 0.00 0.08 0.00 96 1007.2
20260507043016 14 215 0.0 0.0 0.00 0.08 0.00 95 1006.2
20260507043003 14 0 0.0 0.0 0.00 0.08 0.00 96 1007.3
20260507042503 14 0 0.0 0.0 0.00 0.08 0.00 96 1007.1
20260507042003 14 0 0.0 0.0 0.00 0.08 0.00 96 1007.1
20260507041522 14 215 0.0 0.0 0.00 0.08 0.00 96 1006.2
20260507041503 14 0 0.0 0.0 0.00 0.08 0.00 96 1007.3
20260507041003 14 0 0.0 0.0 0.00 0.08 0.00 96 1007.4
20260507040503 14 0 0.0 0.0 0.00 0.08 0.00 96 1007.4
20260507040024 14 0 0.0 0.0 0.00 0.08 0.00 95 1007.2
20260507040015 13 215 0.0 0.0 0.00 0.08 0.00 95 1006.2
20260507035503 14 0 0.0 0.0 0.00 0.08 0.08 95 1007.3
20260507035003 14 0 0.0 0.0 0.00 0.08 0.08 95 1007.4
20260507034516 13 215 0.0 0.0 0.00 0.08 0.08 95 1006.3
20260507034503 14 0 0.0 4.8 0.00 0.08 0.08 95 1007.3
20260507034003 14 0 0.0 4.8 0.00 0.08 0.08 95 1007.4
20260507033503 13 234 0.0 8.0 0.00 0.08 0.08 95 1007.5
20260507033005 13 238 0.0 8.0 0.00 0.08 0.08 95 1006.4
20260507033003 13 234 0.0 8.0 0.00 0.08 0.08 95 1007.5
20260507032524 13 220 0.0 4.8 0.00 0.08 0.08 95 1007.3
20260507032003 13 220 0.0 4.8 0.00 0.08 0.08 95 1007.2
20260507031524 13 217 0.0 4.8 0.00 0.08 0.08 95 1007.2
20260507031003 13 217 0.0 4.8 0.00 0.08 0.08 95 1007.2
20260507030524 13 214 0.0 4.8 0.00 0.08 0.08 95 1007.1
20260507030013 13 214 0.0 4.8 0.00 0.08 0.08 95 1006.0
20260507030003 13 214 0.0 4.8 0.00 0.08 0.08 95 1007.0
20260507025503 13 211 0.0 4.8 0.00 0.08 0.08 95 1007.1
20260507025003 13 211 0.0 4.8 0.00 0.08 0.08 95 1007.0
20260507024509 13 212 0.0 3.2 0.00 0.08 0.08 95 1005.9
20260507024503 13 211 0.0 3.2 0.00 0.08 0.08 95 1006.9
20260507024024 13 211 0.0 3.2 0.00 0.08 0.08 95 1007.0
20260507023503 13 0 0.0 0.0 0.00 0.08 0.08 95 1007.1
20260507023012 13 211 0.0 0.0 0.00 0.08 0.08 95 1006.1
20260507023003 13 0 0.0 0.0 0.00 0.08 0.08 95 1007.2
20260507022503 13 0 0.0 0.0 0.00 0.08 0.08 95 1007.2
20260507022003 13 200 0.0 4.8 0.00 0.08 0.08 95 1007.1
20260507021506 13 202 0.0 4.8 0.00 0.08 0.08 95 1006.0
20260507021503 13 200 0.0 4.8 0.00 0.08 0.08 95 1007.0
20260507021024 13 198 0.0 6.4 0.00 0.08 0.08 95 1006.9
20260507020503 13 198 1.6 6.4 0.00 0.08 0.08 95 1007.1
20260507020013 13 198 0.0 6.4 0.00 0.08 0.08 95 1006.1
20260507020003 13 198 0.0 6.4 0.00 0.08 0.08 95 1007.1
20260507015524 13 0 0.0 0.0 0.00 0.08 0.08 95 1007.1
20260507015003 13 197 0.0 6.4 0.00 0.08 0.08 95 1007.2
20260507014515 13 199 0.0 8.0 0.00 0.08 0.08 95 1006.2
20260507014503 13 193 1.6 8.0 0.00 0.08 0.08 95 1007.3
20260507014024 13 187 0.0 8.0 0.00 0.08 0.08 95 1007.2
20260507013524 13 185 0.0 6.4 0.00 0.08 0.08 95 1007.3
20260507013020 13 185 0.0 4.8 0.00 0.08 0.08 95 1006.5
20260507013003 13 185 0.0 4.8 0.00 0.08 0.08 95 1007.6
20260507012503 13 0 0.0 0.0 0.00 0.08 0.08 95 1007.7
20260507012003 13 0 0.0 0.0 0.00 0.08 0.08 95 1007.6
20260507011516 13 217 0.0 3.2 0.00 0.08 0.08 95 1006.6
20260507011503 13 217 0.0 4.8 0.00 0.08 0.08 95 1007.6
20260507011003 13 217 0.0 4.8 0.00 0.08 0.08 95 1007.6
20260507010503 13 220 0.0 3.2 0.00 0.08 0.08 95 1007.6
20260507010005 13 221 0.0 4.8 0.03 0.08 0.08 95 1006.6
20260507010003 13 211 0.0 4.8 0.03 0.08 0.08 95 1007.6
20260507005524 13 206 0.0 6.4 0.03 0.08 0.08 95 1007.5
20260507005003 13 205 0.0 6.4 0.03 0.08 0.08 95 1007.6
20260507004515 13 219 0.0 6.4 0.03 0.08 0.08 95 1006.6
20260507004503 13 216 0.0 6.4 0.03 0.08 0.08 95 1007.6
20260507004025 13 216 0.0 6.4 0.03 0.08 0.08 94 1007.5
20260507003524 13 249 0.0 4.8 0.03 0.08 0.08 94 1007.6
20260507003009 13 290 0.0 4.8 0.03 0.08 0.08 94 1006.4
20260507003003 13 249 0.0 4.8 0.03 0.08 0.08 94 1007.4
20260507002503 13 189 1.6 9.7 0.03 0.08 0.08 94 1007.4
20260507002003 13 193 1.6 9.7 0.03 0.08 0.08 94 1007.4
20260507001524 13 197 1.6 9.7 0.03 0.08 0.08 94 1007.5
20260507001505 13 193 3.2 9.7 0.03 0.08 0.08 94 1006.5
20260507001024 13 217 0.0 4.8 0.03 0.08 0.08 94 1007.4
20260507000503 13 220 0.0 4.8 0.03 0.08 0.08 94 1007.3
20260507000024 13 223 0.0 9.7 0.00 0.05 0.05 94 1006.3
20260507000003 13 196 1.6 9.7 0.00 0.05 0.05 94 1007.4
20260506235503 13 193 1.6 9.7 0.00 0.05 0.05 94 1007.3
20260506235003 13 217 0.0 1.6 0.00 0.05 0.05 94 1007.3
20260506234516 13 219 0.0 4.8 0.00 0.05 0.05 94 1006.2
20260506234503 13 220 0.0 4.8 0.00 0.05 0.05 94 1007.2
20260506234003 13 210 0.0 4.8 0.00 0.05 0.05 94 1007.2
20260506233503 13 200 0.0 3.2 0.00 0.05 0.05 94 1007.2
20260506233105 13 199 0.0 4.8 0.00 0.05 0.05 93 1006.1
20260506233003 13 199 0.0 4.8 0.00 0.05 0.05 93 1007.2
20260506232503 13 199 0.0 4.8 0.00 0.05 0.05 93 1007.3
20260506232003 13 0 0.0 0.0 0.00 0.05 0.05 93 1007.3
20260506231528 13 198 0.0 9.7 0.00 0.05 0.05 93 1006.4
20260506231503 13 203 0.0 9.7 0.00 0.05 0.05 93 1007.4
20260506231003 13 202 0.0 9.7 0.03 0.05 0.05 93 1007.5
20260506230524 13 204 0.0 6.4 0.03 0.05 0.05 93 1007.7
20260506230008 13 206 0.0 6.4 0.03 0.05 0.05 93 1006.4
20260506230003 13 206 0.0 6.4 0.03 0.05 0.05 93 1007.5
20260506225524 13 206 0.0 4.8 0.03 0.05 0.05 93 1007.4
20260506225003 13 0 0.0 0.0 0.03 0.05 0.05 93 1007.5
20260506224608 13 221 0.0 0.0 0.03 0.05 0.05 93 1006.3
20260506224524 13 213 0.0 4.8 0.03 0.05 0.05 93 1007.4
20260506224003 13 213 0.0 4.8 0.03 0.05 0.05 93 1007.3
20260506223503 13 0 0.0 3.2 0.03 0.05 0.05 93 1007.3
20260506223106 13 238 0.0 3.2 0.03 0.05 0.05 92 1006.3
20260506223003 13 0 0.0 3.2 0.03 0.05 0.05 92 1007.4
20260506222503 14 197 0.0 6.4 0.03 0.05 0.05 92 1007.5
20260506222003 14 196 0.0 6.4 0.03 0.05 0.05 92 1007.6
20260506221514 13 195 0.0 3.2 0.03 0.05 0.05 92 1006.6
20260506221503 14 194 0.0 3.2 0.03 0.05 0.05 92 1007.7
20260506221003 14 193 0.0 3.2 0.00 0.03 0.03 92 1007.7
20260506220524 14 196 1.6 8.0 0.00 0.03 0.03 92 1007.7
20260506220008 14 190 0.0 8.0 0.00 0.03 0.03 92 1006.8
20260506220003 14 196 1.6 8.0 0.00 0.03 0.03 92 1007.8
20260506215503 14 198 0.0 4.8 0.00 0.03 0.03 91 1007.8
20260506215003 15 197 0.0 9.7 0.03 0.03 0.03 91 1007.8
20260506214517 14 198 1.6 9.7 0.03 0.03 0.03 91 1006.8
20260506214503 15 195 0.0 9.7 0.03 0.03 0.03 91 1007.9
20260506214024 15 207 0.0 8.0 0.03 0.03 0.03 91 1007.9
20260506213503 15 220 0.0 6.4 0.03 0.03 0.03 91 1008.0
20260506213024 15 208 0.0 8.0 0.03 0.03 0.03 91 1008.0
20260506213010 14 229 0.0 8.0 0.03 0.03 0.03 91 1006.9